Skip Page Navigation
NASA JPL Caltech
NASA Logo - Jet Propulsion Laboratory + View the NASA Portal
+ Center for Near-Earth Object Studies
JPL Home Earth Solar System Stars & Galaxies Technology
JPL Solar System Dynamics
BODIES ORBITS EPHEMERIDES TOOLS PHYSICAL DATA DISCOVERY FAQ SITE MAP
JPL Small-Body Database Browser
Search: [ help ]  
26454 (2000 AQ89)
Classification: Main-belt Asteroid          SPK-ID: 2026454
Ephemeris | Orbit Diagram | Orbital Elements | Mission Design | Physical Parameters | Discovery Circumstances | Close-Approach Data ]

[ show orbit diagram ]
Orbital Elements at Epoch 2459200.5 (2020-Dec-17.0) TDB
Reference: JPL 33 (heliocentric ecliptic J2000)
 Element Value Uncertainty (1-sigma)   Units 
e .1484102398161472 4.9496e-08  
a 2.386492097996915 8.4983e-09 au
q 2.032312233413852 1.2012e-07 au
i 5.84063003584621 4.1982e-06 deg
node 299.7713217820922 3.9592e-05 deg
peri 16.20455020003089 4.1848e-05 deg
M 46.85502276352057 1.2839e-05 deg
tp 2459025.236257832113
(2020-Jun-24.73625783)
4.841e-05 TDB
period 1346.599435003639
3.69
7.1929e-06
1.969e-08
d
yr
n .2673400794936671 1.428e-09 deg/d
Q 2.740671962579977 9.7596e-09 au
  Orbit Determination Parameters
   # obs. used (total)      2014  
   data-arc span      12189 days (33.37 yr)  
   first obs. used      1987-08-30  
   last obs. used      2021-01-12  
   planetary ephem.      DE431  
   SB-pert. ephem.      SB431-N16  
   condition code      0  
   norm. resid. RMS      .49387  
   source      ORB  
   producer      Otto Matic  
   solution date      2021-Feb-24 03:19:35  

Additional Information
 Earth MOID = 1.01727 au 
 Jupiter MOID = 2.52777 au 
 T_jup = 3.513 
[ show covariance matrix ]

Ephemeris | Orbit Diagram | Orbital Elements | Mission Design | Physical Parameters | Discovery Circumstances | Close-Approach Data ]

Physical Parameter Table
Parameter Symbol Value Units Sigma Reference Notes
absolute magnitude H 14.24   n/a E2021B10  
rotation period rot_per 4.07602 h n/a LCDB (Rev. 2020-October); Warner et al., 2009 Result based on less than full coverage, so that the period may be wrong by 30 percent or so.
Published Reference List:
[Pal, A.; Szakats, R.; Kiss, C.; Bodi, A.; et al. (2019) Ap. J. Supl. Ser. 247, id.26.]

26454 (2000 AQ89)          Discovered 2000-Jan-05 by LINEAR at Socorro
Reference: 20010705/Numbers.arcLast Updated: 2004-04-19

[ hide close-approach data ]
Close-Approach Data   ...sorted by Date/Time (TDB)
Date/Time (TDB) Time Uncertainty
(days_HH:MM)
Body Nominal Distance (au) Minimum Distance (au) Maximum Distance (au) V-relative (km/s) V-infinity (km/s) JD (TDB) Time Uncertainty (minutes) Semi-major axis (km) Semi-minor axis (km) range-LOV angle (deg) N-sigma BP Orbit Ref. Reference Modified
1918-Jan-10 07:55 < 00:01 Amphi 0.039723612871586 0.0397128944483996 0.039734333083652 3.90428722676609 3.9042871896995 2421603.830181087 0.832084631570939 680.407901807863 38.6059801213039 -38.3284848987066 95653.7782188151 T 33 CATAB v2.0f-lin.ifort 2021-Feb-24 03:19:39 2021-Feb-24 03:19
2032-May-13 23:02 < 00:01 Amphi 0.0133509728397492 0.0133498029586993 0.0133521432208038 3.67613466645015 3.67613454932 2463366.459808239 0.522723526815064 180.162667652759 38.2152454292547 75.5135610648324 50645.0429187016 T 33 CATAB v2.0f-lin.ifort 2021-Feb-24 03:19:39 2021-Feb-24 03:19
2146-Sep-13 16:54 00:01 Amphi 0.0123934321809473 0.0123728152167649 0.0124140494048228 3.60913263553738 3.60913250701505 2505126.203947521 1.47285833686573 1031.280287854 38.1704933559153 4.96061447566288 4560.64436945478 T 33 CATAB v2.0f-lin.ifort 2021-Feb-24 03:19:39 2021-Feb-24 03:19

Alternate Designations
 2000 AQ89 = 1987 QV3 = 1987 SW26 = 1998 QD53 
Ephemeris | Orbit Diagram | Orbital Elements | Mission Design | Physical Parameters | Discovery Circumstances | Close-Approach Data ]
ABOUT SSD CREDITS/AWARDS PRIVACY/COPYRIGHT GLOSSARY LINKS
FirstGov 2021-Mar-03 12:11 UT
(server date/time)  
NASA Home Page
Site Manager:   Ryan S. Park
Webmaster  Alan B. Chamberlin